HAWK-B

Last updated on Sun Jun 21 2026 00:03:42 GMT+0000 (Coordinated Universal Time)

1 43794U 18099AN 26171.12961070 .00004571 00000+0 19590-3 0 9990 2 43794 97.3956 222.7361 0030342 294.0424 65.7638 15.22851797413480
UTC large
Height (km)
Speed (km/s)
/
Latitude / Longitude
Inclination (degrees)
Orbital Period (minutes)
Azimuth
Elevation
Range (km)
Doppler Factor

Next 0 passes for location: London (51.5072 / 0.1276)

No passes found over London.
HAWK-B